SCP
0 -0 -0 -0 -0 -0 -0 -0 -0 -0 -0 -0 -0 -0 -0 -0 -0 -0 -0 -0 -0 -0 -0 -0 -0 -0 -0 0 -0 0 0 -0 -0 -0 -0 -0 -0 -0 -0 0 -0 -0 0
-0 0 -0 -0 -0 -0 -0 -0 -0 -0 -0 -0 -0 -0 -0 -0 -0 -0 -0 0 -0 0 0 -0 -0 -0 -0 -0 -0 0 0 -0 -0 -0 0 0 -0 -0 -0 0 0 0 0
-0 -0 0 -0 -0 -0 -0 -0 -0 -0 -0 -0 -0 -0 -0 -0 0 -0 0 -0 -0 -0 -0 -0 -0 -0 -0 -0 -0 -0 -0 -0 0 0 -0 -0 -0 -0 -0 0 0 0 0
-0 0 -0 -0 -0 -0 -0 -0 -0 -0 -0 -0 -0 -0 -0 -0 0 0 -0 -0 -0 -0 -0 -0 -0 -0 -0 -0 -0 -0 -0 -0 -0 -0 -0 -0 -0 0 0 0 0 0 0
-0 0 0 -0 -0 -0 -0 -0 -0 -0 -0 -0 -0 -0 -0 -0 -0 -0 0 0 -0 -0 -0 -0 -0 -0 -0 -0 -0 -0 -0 -0 -0 -0 -0 -0 -0 0 0 0 0 0 0
0 0 0 -0 -0 -0 -0 -0 -0 0 -0 -0 -0 -0 -0 -0 0 0 0 0 0 0 0 0 0 0 0 0 0 -0 0 0 0 -0 -0 -0 -0 0 0 0 0 0 0
0 0 0 0 -0 -0 -0 -0 0 0 0 0 0 0 -0 0 0 -0 0 0 0 0 0 0 0 0 0 0 0 0 0 0 0 -0 -0 -0 -0 0 0 0 0 0 0
0 0 0 0 0 0 0 0 -0 0 0 0 0 0 0 0 0 0 -0 -0 -0 -0 0 0 0 0 0 0 0 0 0 0 0 -0 -0 -0 -0 -0 0 0 0 0 0
0 0 0 0 0 0 0 0 -0 -0 0 0 0 0 0 0 0 0 0 0 0 0 0 0 0 0 0 0 0 0 0 0 -0 -0 -0 -0 -0 -0 0 0 0 0 0
-0 -0 0 0 0 0 0 0 0 -0 -0 0 0 0 0 0 0 0 0 -0 -0 0 0 0 -0 -0 -0 -0 0 -0 -0 -0 -0 -0 -0 -0 -0 -0 0 0 0 0 0
-0 -0 -0 -0 0 0 0 0 0 0 -0 0 0 0 0 0 0 0 0 -0 -0 0 0 0 0 -0 -0 -0 -0 -0 -0 -0 -0 -0 -0 -0 -0 -0 -0 0 0 0 0
-0 -0 -0 -0 -0 -0 0 0 0 0 0 0 0 0 0 0 0 0 0 -0 -0 -0 -0 0 0 0 -0 0 -0 -0 -0 -0 -0 -0 0 -0 -0 -0 -0 -0 0 0 0
-0 -0 -0 -0 -0 -0 -0 0 0 0 0 0 0 0 0 0 0 0 0 0 0 0 0 0 0 0 0 0 0 -0 -0 -0 0 0 0 -0 -0 -0 -0 0 0 0 0
-0 0 0 0 0 0 0 0 0 0 0 0 0 0 0 0 0 0 0 0 0 0 0 0 0 0 0 0 0 0 0 0 0 0 0 0 0 -0 -0 0 0 0 0
0 0 0 0 0 0 0 0 0 0 0 0 0 0 0 0 0 0 0 0 0 0 0 0 0 0 0 0 0 0 0 0 0 0 0 0 0 0 0 0 0 0 0
0 0 0 0 0 0 0 0 0 0 0 0 0 0 0 0 0 0 0 0 0 0 0 0 0 0 0 0 0 0 0 0 0 0 0 0 0 0 0 0 0 0 0
0 0 0 0 0 0 0 0 0 0 0 0 0 0 0 0 0 0 0 0 0 0 0 0 0 0 0 0 0 0 0 0 0 0 0 0 0 0 0 0 0 0 0
0 0 0 0 0 0 0 0 0 0 0 0 0 0 0 0 0 0 0 0 0 0 0 0 0 0 0 0 0 0 0 0 0 0 0 0 0 0 0 0 0 0 0
0 0 0 0 0 0 0 0 0 0 0 0 0 0 0 0 0 0 0 0 0 0 0 0 0 0 0 0 0 0 0 0 0 0 0 0 0 0 0 0 0 0 0
0 0 0 0 0 0 0 0 0 0 0 0 0 0 0 0 0 0 0 0 0 0 0 0 0 0 0 0 0 0 0 0 0 0 0 0 0 0 0 0 0 0 0
0 0 0 0 0 0 0 0 0 0 0 0 0 0 0 0 0 0 0 0 0 0 0 0 0 0 0 0 0 0 0 0 0 0 0 0 0 0 0 0 0 0 0
0 0 0 0 0 0 0 0 0 0 0 0 0 0 0 0 0 0 0 0 0 0 0 0 0 0 0 0 0 0 0 0 0 0 0 0 0 0 0 0 0 0 0
0 0 0 0 0 0 0 0 0 0 0 0 0 0 0 0 0 0 0 0 0 0 0 0 0 0 0 0 0 0 0 0 0 0 0 0 0 0 0 0 0 0 0
0 0 0 0 0 0 0 0 0 0 0 0 0 0 0 0 0 0 0 0 0 0 0 0 0 0 0 0 0 0 0 0 0 0 0 0 0 0 0 0 0 0 0
0 0 0 0 0 0 0 0 0 0 0 0 0 0 0 0 0 0 0 0 0 0 0 0 0 0 0 0 0 0 0 0 0 0 0 0 0 0 0 0 0 0 0
0 0 0 0 0 0 0 0 0 0 0 0 0 0 0 0 0 0 0 0 0 0 0 0 0 0 0 0 0 0 0 0 0 0 0 0 0 0 0 0 0 0 0
Wind_Speed_500mb
38 32 32 32 33 31 30 31 28 28 27 27 27 23 16 9 7 7 13 21 25 25 25 28 29 38 28 27 25 22 21 21 20 20 22 22 19 18 22 27 30 33 33
42 37 35 33 30 31 30 26 26 27 25 24 22 17 13 6 4 10 15 22 25 24 26 26 29 29 24 22 19 18 17 22 24 25 25 25 25 26 28 29 31 33 31
42 40 35 31 30 29 27 25 24 25 24 23 19 14 10 4 3 11 17 21 24 24 25 25 28 26 22 19 21 24 22 25 27 28 28 28 28 29 30 31 32 31 31
41 40 36 32 28 26 25 25 24 23 22 18 17 14 12 10 7 12 16 21 22 22 22 22 23 21 18 17 19 21 22 22 24 26 26 27 29 31 31 31 30 30 30
41 38 34 30 28 25 24 24 23 21 19 17 14 15 16 11 13 14 18 18 19 21 20 18 18 17 13 13 13 13 15 18 22 24 25 25 26 30 30 29 27 28 28
40 37 33 28 25 23 21 22 24 22 17 14 11 10 17 14 11 12 17 19 16 19 18 17 16 14 10 7 8 10 13 16 19 21 22 23 23 24 27 28 27 26 26
39 36 33 29 25 22 20 19 20 22 20 15 13 10 10 14 11 13 15 14 15 16 16 16 14 11 8 4 4 7 9 12 15 16 18 20 20 21 24 24 25 25 23
36 36 31 28 25 24 21 17 16 15 18 18 15 12 12 13 12 8 11 11 10 10 10 11 11 10 7 5 1 3 6 9 11 12 13 14 16 17 19 21 21 21 21
39 36 32 30 27 26 22 18 14 11 14 17 15 17 14 12 12 10 8 8 9 8 9 8 9 9 8 5 3 4 7 7 8 9 11 11 13 14 15 17 17 17 17
41 36 32 32 28 27 24 21 18 14 13 13 11 11 14 13 13 12 8 7 8 7 6 7 8 8 8 8 8 8 8 9 9 9 9 10 11 13 13 14 15 15 15
44 40 37 33 29 26 25 23 22 20 17 15 11 9 10 12 11 13 10 10 7 5 6 7 9 11 12 12 12 13 13 14 13 13 12 12 12 13 14 15 16 16 16
49 47 41 37 34 30 28 27 25 24 22 21 17 14 12 13 13 12 12 14 14 12 10 8 8 10 12 15 16 17 17 18 17 16 16 16 16 17 17 18 19 20 20
47 46 41 38 37 34 31 28 28 27 25 23 21 19 16 17 18 18 16 15 16 16 15 15 14 15 16 17 18 20 20 21 21 19 19 19 20 21 21 22 22 23 24
45 44 38 35 36 38 35 33 29 29 29 27 24 22 22 21 20 19 19 19 20 19 18 20 19 20 22 21 21 20 21 20 21 22 22 23 25 25 26 26 27 27 28
42 39 36 34 34 37 38 36 34 32 31 28 28 27 26 25 23 22 20 21 21 23 22 21 22 23 23 23 24 25 24 24 25 25 25 25 26 27 28 29 29 30 31
42 41 36 37 34 35 37 37 36 34 32 32 32 30 30 28 27 27 25 23 23 22 21 22 23 24 24 25 24 26 26 27 28 29 30 29 29 30 30 30 31 31 32
43 40 41 39 39 38 38 35 35 32 33 34 34 34 33 33 31 31 30 30 25 26 27 27 26 26 27 27 27 25 28 28 31 32 32 32 30 29 30 30 31 32 32
47 46 42 42 43 42 39 37 37 35 35 34 34 34 36 35 33 35 35 33 27 28 29 30 30 32 32 32 32 30 32 33 34 34 35 34 33 33 32 31 33 35 34
47 46 47 47 46 42 41 38 38 38 39 38 37 39 38 39 38 37 37 34 30 31 33 33 33 36 35 35 37 37 38 39 39 40 37 35 36 36 34 30 29 29 28
53 51 49 50 49 47 47 44 41 43 42 42 43 41 40 40 38 42 41 38 35 36 37 39 42 40 40 40 42 44 44 42 41 37 31 26 23 24 26 25 21 14 14
62 61 58 56 53 52 53 51 49 49 44 42 42 42 37 35 37 39 41 43 40 39 39 39 40 41 42 41 49 49 50 48 36 30 13 22 19 17 16 16 20 21 27
69 68 66 64 62 60 57 54 52 45 41 36 38 38 36 36 37 39 41 39 40 39 38 37 35 39 42 39 44 49 53 54 42 25 36 30 28 25 18 21 24 22 25
79 79 74 73 72 68 67 62 62 59 53 48 42 41 40 39 38 40 41 44 45 45 46 44 40 39 43 44 43 41 25 23 45 45 40 43 30 26 27 30 24 28 31
85 75 74 75 74 75 76 74 70 66 63 52 40 36 34 38 40 39 41 43 42 48 42 43 45 42 43 46 48 47 48 52 50 41 47 43 41 37 36 27 33 31 30
62 59 56 67 77 78 76 76 72 72 69 60 55 53 49 46 47 46 44 43 44 47 45 48 47 48 43 44 45 50 48 53 52 53 49 40 50 40 44 30 21 20 25
74 72 63 55 53 60 66 72 71 71 69 65 61 61 59 54 50 53 50 46 45 47 48 41 39 45 42 47 53 51 45 45 39 35 40 36 32 41 26 21 15 19 28
Wind_Direction_500mb
164 160 152 149 150 150 146 141 142 145 134 141 139 148 149 142 110 89 122 112 111 101 105 102 109 119 109 114 112 102 88 83 83 76 70 69 67 59 48 45 48 53 59
155 160 157 158 157 159 151 148 147 153 155 147 152 153 147 153 72 72 106 109 106 99 105 115 110 110 120 112 97 89 85 79 68 71 61 57 57 55 53 52 55 58 60
159 161 161 162 162 163 158 156 156 160 164 170 181 191 188 194 89 89 107 99 104 104 110 114 112 120 112 101 87 86 89 79 75 66 59 54 55 55 53 53 54 55 60
162 164 164 164 166 166 171 174 169 164 165 171 179 182 184 173 141 125 108 107 104 104 107 110 112 113 107 91 83 78 83 76 66 56 55 53 52 52 51 51 53 54 54
167 166 167 167 169 173 177 179 180 178 177 175 175 183 183 172 138 126 118 117 116 112 114 110 118 120 113 95 75 66 66 65 57 56 59 56 52 49 50 50 51 52 53
168 169 170 172 175 177 181 186 190 193 194 185 175 151 182 174 144 140 127 127 121 128 130 133 137 131 133 104 76 58 53 54 53 53 57 57 49 44 44 45 46 47 49
170 173 175 177 178 180 179 177 177 180 193 190 189 176 173 177 165 145 148 153 148 143 147 144 144 153 146 118 69 58 53 48 47 50 50 51 50 40 40 40 40 41 43
179 178 180 181 182 181 179 177 173 177 183 188 184 183 178 173 176 166 145 154 159 163 159 162 164 164 166 178 196 6 23 32 39 39 36 38 41 41 33 34 33 33 34
186 186 185 185 184 184 184 185 183 174 171 177 177 180 178 171 174 192 165 171 183 187 178 184 191 196 199 212 248 290 324 349 6 15 17 16 19 24 24 21 20 19 21
189 194 194 191 191 191 189 194 197 193 177 186 176 178 185 185 190 200 200 197 199 201 215 212 224 233 237 235 253 278 299 314 325 334 340 347 352 355 359 1 357 358 0
194 200 204 202 199 200 200 202 206 206 201 202 211 208 198 202 204 207 218 228 228 224 220 225 229 237 247 257 265 275 286 294 303 310 313 317 323 326 329 331 335 335 334
195 201 208 210 208 207 210 210 213 218 216 214 216 223 217 216 216 213 219 230 235 234 235 242 255 258 261 265 268 274 278 285 290 295 302 299 308 312 310 313 317 318 319
199 203 207 212 215 217 217 220 219 221 226 226 229 232 235 233 233 237 243 250 249 252 256 265 273 280 275 276 278 280 281 282 284 290 294 296 298 301 303 304 304 305 307
206 207 211 215 219 223 224 226 227 230 231 232 235 237 242 244 245 249 254 257 256 259 261 268 279 286 286 286 287 288 289 290 287 290 292 294 297 298 297 297 296 296 298
208 208 211 218 224 225 228 231 231 232 234 236 238 240 245 249 253 255 255 256 259 260 269 276 280 279 283 282 285 286 287 290 290 292 294 294 295 295 295 294 293 293 292
214 216 216 220 224 228 229 232 235 236 236 236 239 243 246 250 253 256 256 258 258 265 272 278 282 282 285 288 289 290 292 290 289 290 293 295 295 294 295 296 295 293 292
217 219 222 224 228 230 233 236 239 242 242 244 247 248 250 250 252 255 258 259 262 266 268 273 279 283 284 285 290 291 292 291 288 289 292 295 297 298 298 297 297 295 294
226 224 225 228 232 236 238 239 242 245 249 252 254 255 254 254 254 254 257 259 263 266 271 275 279 281 286 288 289 291 289 289 291 293 294 300 302 299 296 293 291 291 290
232 233 232 232 234 237 241 244 246 249 252 254 257 259 257 259 257 256 257 257 259 268 272 277 281 285 286 289 292 291 292 292 294 296 300 303 300 295 289 287 293 296 296
235 236 237 238 239 238 239 243 244 245 248 251 255 256 255 259 262 260 261 262 267 270 274 279 282 284 289 294 295 293 293 298 303 306 307 310 324 307 295 292 300 309 323
236 238 236 237 237 240 241 240 240 243 248 253 258 254 258 262 264 261 259 259 262 265 271 278 280 282 285 292 294 299 301 305 308 312 309 324 336 333 334 327 317 303 308
236 236 237 238 238 239 240 240 244 249 253 261 261 254 253 258 261 260 257 256 265 269 272 278 280 282 284 288 288 293 299 303 311 311 306 308 310 319 327 326 321 311 311
238 238 238 239 241 241 242 240 241 243 247 250 256 253 256 262 263 263 262 257 256 264 267 271 275 279 283 282 284 277 280 279 294 299 298 300 306 306 305 302 298 291 297
240 241 240 240 242 242 242 239 241 246 251 256 267 265 266 266 264 263 260 252 251 252 258 268 268 272 271 278 280 276 272 268 273 292 290 294 302 307 312 299 306 294 293
241 239 240 241 241 239 239 239 241 245 252 254 257 257 258 262 261 257 257 252 249 251 250 255 269 274 268 272 274 277 279 287 275 281 268 279 295 303 305 319 304 303 290
239 240 243 243 241 234 234 237 240 245 250 251 252 252 256 260 265 256 253 255 250 248 255 257 260 267 272 275 276 277 275 284 275 268 268 281 274 296 302 297 278 302 280
Wind_Speed_850mb
38 32 32 32 33 31 30 31 28 28 27 27 27 23 16 9 7 7 13 21 25 25 25 28 29 38 28 27 25 22 21 21 20 20 22 22 19 18 22 27 30 33 33
42 37 35 33 30 31 30 26 26 27 25 24 22 17 13 6 4 10 15 22 25 24 26 26 29 29 24 22 19 18 17 22 24 25 25 25 25 26 28 29 31 33 31
42 40 35 31 30 29 27 25 24 25 24 23 19 14 10 4 3 11 17 21 24 24 25 25 28 26 22 19 21 24 22 25 27 28 28 28 28 29 30 31 32 31 31
41 40 36 32 28 26 25 25 24 23 22 18 17 14 12 10 7 12 16 21 22 22 22 22 23 21 18 17 19 21 22 22 24 26 26 27 29 31 31 31 30 30 30
41 38 34 30 28 25 24 24 23 21 19 17 14 15 16 11 13 14 18 18 19 21 20 18 18 17 13 13 13 13 15 18 22 24 25 25 26 30 30 29 27 28 28
40 37 33 28 25 23 21 22 24 22 17 14 11 10 17 14 11 12 17 19 16 19 18 17 16 14 10 7 8 10 13 16 19 21 22 23 23 24 27 28 27 26 26
39 36 33 29 25 22 20 19 20 22 20 15 13 10 10 14 11 13 15 14 15 16 16 16 14 11 8 4 4 7 9 12 15 16 18 20 20 21 24 24 25 25 23
36 36 31 28 25 24 21 17 16 15 18 18 15 12 12 13 12 8 11 11 10 10 10 11 11 10 7 5 1 3 6 9 11 12 13 14 16 17 19 21 21 21 21
39 36 32 30 27 26 22 18 14 11 14 17 15 17 14 12 12 10 8 8 9 8 9 8 9 9 8 5 3 4 7 7 8 9 11 11 13 14 15 17 17 17 17
41 36 32 32 28 27 24 21 18 14 13 13 11 11 14 13 13 12 8 7 8 7 6 7 8 8 8 8 8 8 8 9 9 9 9 10 11 13 13 14 15 15 15
44 40 37 33 29 26 25 23 22 20 17 15 11 9 10 12 11 13 10 10 7 5 6 7 9 11 12 12 12 13 13 14 13 13 12 12 12 13 14 15 16 16 16
49 47 41 37 34 30 28 27 25 24 22 21 17 14 12 13 13 12 12 14 14 12 10 8 8 10 12 15 16 17 17 18 17 16 16 16 16 17 17 18 19 20 20
47 46 41 38 37 34 31 28 28 27 25 23 21 19 16 17 18 18 16 15 16 16 15 15 14 15 16 17 18 20 20 21 21 19 19 19 20 21 21 22 22 23 24
45 44 38 35 36 38 35 33 29 29 29 27 24 22 22 21 20 19 19 19 20 19 18 20 19 20 22 21 21 20 21 20 21 22 22 23 25 25 26 26 27 27 28
42 39 36 34 34 37 38 36 34 32 31 28 28 27 26 25 23 22 20 21 21 23 22 21 22 23 23 23 24 25 24 24 25 25 25 25 26 27 28 29 29 30 31
42 41 36 37 34 35 37 37 36 34 32 32 32 30 30 28 27 27 25 23 23 22 21 22 23 24 24 25 24 26 26 27 28 29 30 29 29 30 30 30 31 31 32
43 40 41 39 39 38 38 35 35 32 33 34 34 34 33 33 31 31 30 30 25 26 27 27 26 26 27 27 27 25 28 28 31 32 32 32 30 29 30 30 31 32 32
47 46 42 42 43 42 39 37 37 35 35 34 34 34 36 35 33 35 35 33 27 28 29 30 30 32 32 32 32 30 32 33 34 34 35 34 33 33 32 31 33 35 34
47 46 47 47 46 42 41 38 38 38 39 38 37 39 38 39 38 37 37 34 30 31 33 33 33 36 35 35 37 37 38 39 39 40 37 35 36 36 34 30 29 29 28
53 51 49 50 49 47 47 44 41 43 42 42 43 41 40 40 38 42 41 38 35 36 37 39 42 40 40 40 42 44 44 42 41 37 31 26 23 24 26 25 21 14 14
62 61 58 56 53 52 53 51 49 49 44 42 42 42 37 35 37 39 41 43 40 39 39 39 40 41 42 41 49 49 50 48 36 30 13 22 19 17 16 16 20 21 27
69 68 66 64 62 60 57 54 52 45 41 36 38 38 36 36 37 39 41 39 40 39 38 37 35 39 42 39 44 49 53 54 42 25 36 30 28 25 18 21 24 22 25
79 79 74 73 72 68 67 62 62 59 53 48 42 41 40 39 38 40 41 44 45 45 46 44 40 39 43 44 43 41 25 23 45 45 40 43 30 26 27 30 24 28 31
85 75 74 75 74 75 76 74 70 66 63 52 40 36 34 38 40 39 41 43 42 48 42 43 45 42 43 46 48 47 48 52 50 41 47 43 41 37 36 27 33 31 30
62 59 56 67 77 78 76 76 72 72 69 60 55 53 49 46 47 46 44 43 44 47 45 48 47 48 43 44 45 50 48 53 52 53 49 40 50 40 44 30 21 20 25
74 72 63 55 53 60 66 72 71 71 69 65 61 61 59 54 50 53 50 46 45 47 48 41 39 45 42 47 53 51 45 45 39 35 40 36 32 41 26 21 15 19 28
Wind_Direction_850mb
164 160 152 149 150 150 146 141 142 145 134 141 139 148 149 142 110 89 122 112 111 101 105 102 109 119 109 114 112 102 88 83 83 76 70 69 67 59 48 45 48 53 59
155 160 157 158 157 159 151 148 147 153 155 147 152 153 147 153 72 72 106 109 106 99 105 115 110 110 120 112 97 89 85 79 68 71 61 57 57 55 53 52 55 58 60
159 161 161 162 162 163 158 156 156 160 164 170 181 191 188 194 89 89 107 99 104 104 110 114 112 120 112 101 87 86 89 79 75 66 59 54 55 55 53 53 54 55 60
162 164 164 164 166 166 171 174 169 164 165 171 179 182 184 173 141 125 108 107 104 104 107 110 112 113 107 91 83 78 83 76 66 56 55 53 52 52 51 51 53 54 54
167 166 167 167 169 173 177 179 180 178 177 175 175 183 183 172 138 126 118 117 116 112 114 110 118 120 113 95 75 66 66 65 57 56 59 56 52 49 50 50 51 52 53
168 169 170 172 175 177 181 186 190 193 194 185 175 151 182 174 144 140 127 127 121 128 130 133 137 131 133 104 76 58 53 54 53 53 57 57 49 44 44 45 46 47 49
170 173 175 177 178 180 179 177 177 180 193 190 189 176 173 177 165 145 148 153 148 143 147 144 144 153 146 118 69 58 53 48 47 50 50 51 50 40 40 40 40 41 43
179 178 180 181 182 181 179 177 173 177 183 188 184 183 178 173 176 166 145 154 159 163 159 162 164 164 166 178 196 6 23 32 39 39 36 38 41 41 33 34 33 33 34
186 186 185 185 184 184 184 185 183 174 171 177 177 180 178 171 174 192 165 171 183 187 178 184 191 196 199 212 248 290 324 349 6 15 17 16 19 24 24 21 20 19 21
189 194 194 191 191 191 189 194 197 193 177 186 176 178 185 185 190 200 200 197 199 201 215 212 224 233 237 235 253 278 299 314 325 334 340 347 352 355 359 1 357 358 0
194 200 204 202 199 200 200 202 206 206 201 202 211 208 198 202 204 207 218 228 228 224 220 225 229 237 247 257 265 275 286 294 303 310 313 317 323 326 329 331 335 335 334
195 201 208 210 208 207 210 210 213 218 216 214 216 223 217 216 216 213 219 230 235 234 235 242 255 258 261 265 268 274 278 285 290 295 302 299 308 312 310 313 317 318 319
199 203 207 212 215 217 217 220 219 221 226 226 229 232 235 233 233 237 243 250 249 252 256 265 273 280 275 276 278 280 281 282 284 290 294 296 298 301 303 304 304 305 307
206 207 211 215 219 223 224 226 227 230 231 232 235 237 242 244 245 249 254 257 256 259 261 268 279 286 286 286 287 288 289 290 287 290 292 294 297 298 297 297 296 296 298
208 208 211 218 224 225 228 231 231 232 234 236 238 240 245 249 253 255 255 256 259 260 269 276 280 279 283 282 285 286 287 290 290 292 294 294 295 295 295 294 293 293 292
214 216 216 220 224 228 229 232 235 236 236 236 239 243 246 250 253 256 256 258 258 265 272 278 282 282 285 288 289 290 292 290 289 290 293 295 295 294 295 296 295 293 292
217 219 222 224 228 230 233 236 239 242 242 244 247 248 250 250 252 255 258 259 262 266 268 273 279 283 284 285 290 291 292 291 288 289 292 295 297 298 298 297 297 295 294
226 224 225 228 232 236 238 239 242 245 249 252 254 255 254 254 254 254 257 259 263 266 271 275 279 281 286 288 289 291 289 289 291 293 294 300 302 299 296 293 291 291 290
232 233 232 232 234 237 241 244 246 249 252 254 257 259 257 259 257 256 257 257 259 268 272 277 281 285 286 289 292 291 292 292 294 296 300 303 300 295 289 287 293 296 296
235 236 237 238 239 238 239 243 244 245 248 251 255 256 255 259 262 260 261 262 267 270 274 279 282 284 289 294 295 293 293 298 303 306 307 310 324 307 295 292 300 309 323
236 238 236 237 237 240 241 240 240 243 248 253 258 254 258 262 264 261 259 259 262 265 271 278 280 282 285 292 294 299 301 305 308 312 309 324 336 333 334 327 317 303 308
236 236 237 238 238 239 240 240 244 249 253 261 261 254 253 258 261 260 257 256 265 269 272 278 280 282 284 288 288 293 299 303 311 311 306 308 310 319 327 326 321 311 311
238 238 238 239 241 241 242 240 241 243 247 250 256 253 256 262 263 263 262 257 256 264 267 271 275 279 283 282 284 277 280 279 294 299 298 300 306 306 305 302 298 291 297
240 241 240 240 242 242 242 239 241 246 251 256 267 265 266 266 264 263 260 252 251 252 258 268 268 272 271 278 280 276 272 268 273 292 290 294 302 307 312 299 306 294 293
241 239 240 241 241 239 239 239 241 245 252 254 257 257 258 262 261 257 257 252 249 251 250 255 269 274 268 272 274 277 279 287 275 281 268 279 295 303 305 319 304 303 290
239 240 243 243 241 234 234 237 240 245 250 251 252 252 256 260 265 256 253 255 250 248 255 257 260 267 272 275 276 277 275 284 275 268 268 281 274 296 302 297 278 302 280